GFSSW_sfc_wetblb_159.txt.gz
Wetbulb
54.35 54.41 54.36 54.25 54.31 54.12 54.10 54.13 53.83 53.58 53.77 54.07 54.53 54.17 53.82 53.80 53.85 50.35 45.66 49.21 51.66 55.43 57.65 54.54 52.39 50.44 51.89 49.56 49.86 49.42 44.76 41.67 42.80 42.16 44.02 46.67 45.94 47.97 49.79 49.18 49.45 51.29 52.10 62.57 72.87
54.19 54.23 54.27 54.08 54.12 54.01 53.87 53.59 53.57 53.36 53.47 54.13 54.42 54.24 53.66 53.42 49.89 46.35 52.01 54.42 55.26 57.49 54.84 50.81 48.56 48.88 45.81 47.51 47.93 47.26 43.25 44.19 47.31 47.39 45.73 47.02 47.33 48.15 48.05 48.57 48.87 51.65 54.69 61.37 70.86
53.88 53.93 53.95 53.97 54.01 53.56 53.26 53.41 53.44 53.27 53.08 53.21 53.65 54.05 53.19 52.96 44.67 45.40 55.27 56.32 57.49 58.34 55.46 51.95 52.05 49.18 42.95 46.66 46.14 44.84 42.55 47.12 47.00 48.86 48.61 47.81 47.17 49.25 48.04 47.30 50.28 50.75 52.84 61.50 69.53
53.69 53.73 53.69 53.75 53.63 53.25 53.20 53.61 53.27 52.98 52.89 52.73 53.16 53.91 53.66 49.90 38.55 49.41 60.03 56.56 55.46 54.70 50.53 51.02 49.49 45.91 42.87 40.72 45.17 41.75 44.57 45.08 46.50 47.67 46.63 46.19 49.41 49.19 50.18 49.96 52.83 53.31 53.91 56.50 68.73
53.41 53.60 53.48 53.08 53.01 53.05 53.13 52.96 52.69 52.54 52.75 52.93 53.21 53.79 50.32 43.71 44.77 51.24 54.95 52.98 52.33 50.87 48.37 48.56 46.83 44.73 40.65 41.58 42.99 41.68 42.79 45.43 46.91 47.10 47.42 48.20 46.81 46.89 48.25 52.98 54.67 55.31 55.74 55.86 60.06
53.13 53.23 52.96 52.71 52.88 52.72 52.83 53.29 52.96 52.90 53.05 53.50 53.78 53.49 47.04 41.59 50.88 51.57 50.80 50.74 51.27 50.12 48.42 48.85 47.48 47.86 43.84 42.09 41.03 42.41 43.15 43.68 45.10 45.39 46.84 45.28 46.32 47.61 49.00 51.71 52.23 53.40 54.46 55.74 56.12
53.41 52.88 52.56 52.59 52.76 52.90 53.53 53.35 52.89 53.14 53.41 54.02 54.59 51.14 45.19 45.89 51.74 51.77 50.85 50.53 50.80 50.50 48.08 49.77 49.59 46.56 44.98 42.08 45.62 44.07 40.60 43.19 44.22 44.76 44.12 46.48 43.02 44.22 49.10 51.11 50.38 52.31 53.94 54.44 55.45
53.29 52.56 52.66 52.79 52.80 53.07 53.62 53.37 53.72 54.67 54.31 54.94 55.08 50.17 43.78 51.47 52.96 51.48 51.44 51.05 51.26 51.46 50.32 50.71 50.03 46.89 44.17 45.37 42.71 39.84 39.69 35.86 42.46 44.54 44.55 44.98 38.02 46.11 49.03 48.92 48.73 49.91 50.73 52.13 55.04
53.18 52.56 52.48 52.73 52.90 53.33 53.76 53.52 55.36 55.92 55.72 55.16 50.39 47.29 44.66 53.23 49.42 52.95 53.09 50.52 50.58 50.52 50.59 51.17 48.60 44.71 42.97 39.08 36.70 37.49 32.85 34.58 37.87 44.94 43.40 43.26 39.80 45.05 49.15 49.20 48.46 49.54 50.65 51.43 53.44
52.52 52.69 52.81 52.75 53.20 53.59 53.26 53.12 56.15 55.06 53.67 52.67 50.67 44.03 47.29 46.42 50.16 51.68 53.46 51.73 49.32 48.27 46.63 46.10 44.51 40.78 39.81 37.49 30.44 32.60 32.81 34.79 35.11 40.91 43.33 41.93 41.28 44.93 47.95 48.84 48.77 49.71 50.61 51.94 52.88
52.79 52.52 52.31 52.77 52.93 53.15 51.58 50.10 48.05 46.60 49.22 44.91 45.32 44.45 46.50 49.86 51.70 49.71 51.10 49.61 48.49 45.32 40.33 43.03 38.68 35.84 38.73 39.54 39.35 37.87 35.60 34.79 37.73 40.96 40.59 40.08 41.70 44.07 46.80 47.96 48.53 49.43 50.72 51.90 53.23
52.54 52.38 52.44 52.42 52.90 52.29 49.16 48.36 47.86 48.52 42.29 47.11 46.75 46.37 48.40 48.92 44.44 47.51 51.12 45.14 42.99 40.02 40.95 38.89 35.49 41.20 42.37 40.96 38.16 37.52 35.28 35.22 38.47 40.08 39.35 38.67 39.06 43.35 45.76 46.99 48.84 49.79 50.60 51.90 53.31
52.49 52.48 52.26 52.73 52.54 49.39 47.42 48.20 50.76 49.94 42.58 44.35 46.97 46.16 47.51 48.19 43.83 44.49 48.43 46.58 42.62 40.29 40.19 37.23 39.78 42.17 39.81 38.56 36.44 36.53 34.82 35.37 34.66 38.62 39.88 37.95 35.93 38.91 43.77 46.76 48.63 50.72 51.89 52.75 53.39
52.08 52.18 51.64 51.71 49.00 47.53 47.71 49.49 50.59 50.13 38.29 39.60 42.64 45.41 47.17 47.22 42.61 48.71 50.67 47.11 43.27 39.14 40.26 39.23 42.75 40.07 39.12 37.36 38.44 33.67 39.81 37.23 36.06 34.17 30.39 38.69 29.01 36.94 41.62 42.79 46.54 49.47 51.26 51.78 53.02
51.85 52.10 51.88 50.67 49.16 48.20 48.50 50.62 49.55 48.46 26.31 40.07 42.42 50.17 48.06 42.63 43.59 44.57 51.24 46.91 40.26 39.82 39.28 36.83 38.82 38.17 37.30 38.51 40.69 36.33 40.59 37.78 36.72 34.67 33.61 33.71 31.76 36.41 41.84 42.04 44.84 48.33 50.95 52.05 53.51
51.54 51.90 51.23 49.18 48.71 49.85 50.27 49.75 49.03 35.67 25.81 36.52 42.27 41.54 41.20 42.93 42.25 45.50 45.10 47.58 45.97 40.46 40.33 39.66 44.06 41.69 40.61 41.84 40.80 41.42 37.36 36.27 35.61 33.66 25.20 31.97 32.08 33.66 38.14 42.30 46.24 48.27 51.25 52.01 52.33
51.32 50.85 50.66 49.97 47.07 50.27 50.13 47.70 36.05 29.44 38.71 35.83 37.26 40.51 39.19 38.35 39.65 41.22 39.82 38.85 36.27 31.54 33.42 37.97 38.77 42.51 43.14 37.69 39.58 38.34 34.01 26.47 24.27 24.17 23.85 34.46 31.32 34.70 42.77 45.85 47.77 48.61 50.98 52.10 52.34
50.37 49.10 50.02 50.93 49.22 49.59 47.61 41.69 29.20 33.51 34.60 40.54 39.26 38.70 35.32 38.66 38.52 38.85 37.82 36.39 39.69 38.00 34.73 30.90 30.15 38.23 42.11 38.76 36.40 36.42 34.50 27.51 19.40 21.63 27.01 34.09 27.99 34.94 42.63 47.06 49.58 51.02 52.35 51.86 51.82
48.36 49.44 49.29 49.59 49.22 48.77 45.45 34.65 32.64 35.02 38.78 36.83 37.73 34.36 34.88 38.05 37.22 37.30 36.86 36.58 38.32 40.28 32.38 33.07 32.13 40.96 42.12 42.41 38.95 34.70 30.86 36.46 29.22 31.20 27.83 31.83 35.68 41.56 43.05 45.05 47.76 49.40 50.42 51.04 51.74
45.82 46.14 47.84 49.07 48.76 48.91 41.27 34.76 36.26 40.06 40.25 39.14 32.47 35.66 32.15 35.06 34.67 35.36 35.19 39.37 37.99 41.65 41.47 35.07 30.49 37.83 40.25 41.99 40.41 36.88 38.44 28.52 30.87 22.16 21.48 28.93 31.15 33.62 40.39 42.04 47.19 49.14 49.53 51.50 53.03
45.40 45.28 48.73 48.03 49.63 44.02 35.76 35.05 37.40 42.25 41.76 37.25 35.80 34.68 35.49 34.47 35.31 34.28 35.38 38.95 41.03 40.27 41.12 35.15 31.27 33.68 38.71 36.31 34.75 35.07 33.16 33.50 33.93 32.03 26.13 26.08 30.91 41.10 44.90 45.66 47.20 49.78 50.91 51.36 55.79
42.96 39.60 48.12 48.31 40.81 37.86 36.26 36.05 39.06 40.23 41.91 39.70 39.68 38.56 36.04 36.65 34.52 35.19 34.80 37.30 42.51 41.60 33.46 36.80 33.83 31.76 32.93 40.12 40.90 39.03 35.84 35.04 29.85 27.40 31.44 32.82 34.72 46.64 48.24 49.64 50.22 50.60 49.90 55.01 59.59
39.25 39.99 46.93 47.22 34.92 35.13 36.71 35.93 38.27 38.66 38.79 38.32 38.27 40.08 39.58 36.69 32.35 36.10 37.21 42.14 42.62 39.95 33.77 36.91 34.01 29.93 30.87 36.25 38.53 36.19 37.46 37.70 37.24 35.34 29.04 26.42 37.45 51.07 52.85 51.57 48.94 50.05 54.38 59.41 59.72
40.88 36.70 41.00 41.00 39.44 35.79 33.75 33.85 35.18 40.33 38.82 39.86 38.46 39.62 38.30 35.57 37.45 35.42 36.13 39.87 41.32 40.76 43.86 40.25 35.29 34.08 29.89 31.95 36.62 33.75 35.93 37.34 35.45 29.78 29.68 30.13 31.99 41.83 50.59 48.72 52.27 55.84 58.36 57.88 56.42
39.82 36.25 37.52 34.42 36.51 35.88 34.69 34.24 33.95 33.64 38.65 38.96 38.14 39.46 36.38 32.42 34.06 34.56 36.60 37.63 39.55 41.60 40.00 37.94 32.90 35.79 37.21 37.73 37.71 37.23 35.70 36.60 34.21 34.97 32.46 33.65 35.10 40.31 51.10 53.29 55.54 55.76 56.18 55.24 54.45
38.88 37.99 39.16 36.70 37.07 35.43 34.68 35.16 33.48 35.26 34.93 36.37 36.50 38.14 37.60 35.11 35.77 33.27 35.98 35.72 35.78 38.81 37.57 38.06 34.37 36.71 35.56 39.05 38.25 35.69 37.65 37.77 38.42 37.95 37.42 37.37 36.91 46.10 54.64 55.84 54.07 54.00 53.43 52.72 52.64
42.34 42.54 39.24 36.25 35.42 34.26 35.47 34.95 34.82 36.45 38.34 39.19 38.46 36.30 37.45 39.87 41.63 41.84 40.62 39.61 38.32 36.88 35.35 35.65 36.75 34.80 33.06 38.05 37.69 33.86 36.80 38.55 38.96 39.34 38.60 35.03 41.63 51.63 51.64 51.79 52.03 52.30 52.16 51.22 50.58

GFSSW_sfc_wetblb_162.txt.gz
Wetbulb
54.87 54.89 54.78 54.78 54.84 54.61 54.47 54.16 54.14 54.17 54.36 54.42 54.73 55.04 54.96 54.59 54.63 55.67 50.91 52.86 54.05 56.04 59.77 55.50 52.55 51.05 53.05 52.45 53.06 54.76 48.02 45.24 46.83 48.14 48.77 52.65 49.74 52.48 53.64 52.72 54.09 54.88 53.97 58.26 71.73
54.63 54.57 54.55 54.55 54.49 54.21 54.39 54.29 54.49 54.25 54.29 54.05 54.04 54.58 54.75 54.39 54.23 51.44 54.89 54.10 55.72 57.61 55.36 51.71 50.47 50.51 47.73 48.16 50.63 48.99 45.92 46.01 49.81 51.11 50.27 51.93 51.17 51.41 50.52 50.80 51.96 52.95 55.45 56.73 68.29
54.43 54.40 54.42 54.29 54.18 54.11 54.09 54.11 54.10 53.91 53.51 53.44 53.56 53.90 54.49 54.66 50.58 50.53 56.01 56.86 57.77 59.31 56.74 53.34 52.88 50.93 47.01 47.33 48.14 47.91 44.64 48.61 49.66 52.15 52.86 51.42 51.47 52.39 50.39 50.09 52.24 51.94 54.75 56.31 63.18
54.04 54.20 54.04 53.97 53.98 53.94 54.05 53.68 53.44 53.63 53.40 53.43 53.52 53.96 54.52 54.00 43.41 54.26 59.82 56.88 56.60 57.55 54.15 51.29 50.56 47.94 46.29 44.58 47.19 43.92 47.14 47.85 49.56 51.83 50.97 49.86 52.54 52.00 51.90 51.93 54.36 55.16 56.17 56.27 60.30
53.66 53.78 53.80 53.88 53.67 53.67 53.56 53.55 53.81 53.75 53.44 53.64 53.94 54.10 54.21 50.07 49.01 55.95 59.58 56.42 56.37 53.78 51.13 49.76 48.45 47.62 44.32 44.90 45.97 44.97 45.51 46.77 48.61 49.46 49.95 51.22 50.25 50.68 51.67 54.36 55.99 55.98 55.98 56.58 57.90
53.32 53.50 53.65 53.61 53.57 53.44 53.66 53.75 53.99 53.97 53.74 53.94 54.29 54.17 51.83 46.24 54.50 54.85 54.65 54.06 54.43 53.05 51.06 50.85 49.11 50.47 47.60 46.37 44.81 46.19 45.75 46.14 47.56 47.02 48.42 47.94 48.95 50.53 51.89 54.48 54.14 54.98 55.67 56.98 57.62
53.79 53.25 53.03 52.97 53.45 53.58 53.99 53.91 53.61 53.99 54.18 54.42 54.91 54.21 50.50 49.29 55.65 55.82 55.15 54.91 55.03 53.69 50.95 52.46 51.93 49.44 48.39 45.68 48.65 47.09 43.61 45.58 46.43 47.23 46.63 47.72 44.12 46.21 51.04 53.15 53.06 54.48 55.28 56.13 57.61
53.21 53.50 52.73 53.36 53.64 53.99 54.40 54.23 54.70 54.89 54.48 55.12 55.38 53.97 49.54 55.52 57.63 55.68 56.64 55.35 56.24 55.63 53.71 54.01 53.49 50.31 48.21 49.12 46.29 43.50 43.87 39.72 45.04 46.33 46.87 46.27 40.50 46.60 49.99 50.97 51.04 52.54 54.56 55.54 57.19
53.78 53.33 52.96 53.25 53.80 53.99 54.06 54.13 55.95 56.18 55.87 55.48 54.35 52.08 48.44 54.42 52.76 54.67 55.98 53.01 53.99 54.43 54.39 53.46 52.26 48.72 48.18 43.22 41.54 43.11 37.86 39.48 41.45 46.40 46.16 45.25 41.99 46.96 49.49 50.46 50.66 51.95 53.29 54.35 55.47
53.49 53.37 53.33 53.06 53.57 53.76 53.50 53.74 56.29 55.85 55.88 55.58 54.25 48.82 51.92 49.23 52.72 53.38 55.23 54.50 51.89 51.90 50.61 49.65 48.41 44.80 45.27 42.67 35.43 38.08 38.72 39.96 39.21 43.32 44.58 43.59 43.45 46.53 49.29 50.14 50.48 51.80 53.09 54.12 55.07
52.94 53.20 52.66 52.81 53.37 53.62 53.88 55.95 52.85 51.76 52.65 48.86 49.37 48.95 49.90 53.12 54.21 51.89 53.26 52.39 51.93 49.60 44.90 47.28 42.95 40.07 43.00 44.09 43.81 42.09 40.32 39.36 42.69 45.12 42.74 42.89 44.00 46.01 48.74 49.13 49.74 51.52 53.15 54.43 55.36
52.77 52.60 52.79 52.71 53.10 52.98 54.82 51.83 51.30 52.10 45.75 51.37 50.50 50.58 52.31 52.15 47.66 50.24 53.10 48.11 47.29 43.76 46.32 44.21 40.45 44.75 45.95 45.26 43.45 42.32 40.22 40.03 43.28 45.02 43.93 43.08 42.19 44.88 47.33 48.63 50.38 51.34 52.64 54.47 55.79
52.53 52.81 52.30 52.71 52.74 53.90 53.59 51.91 55.22 54.43 47.01 47.75 49.98 49.26 49.48 50.87 47.44 47.50 50.54 49.28 45.75 43.74 43.84 39.89 43.84 46.40 44.00 42.89 41.23 41.90 39.92 39.98 40.10 43.45 44.96 42.47 40.37 43.12 46.22 47.19 49.33 51.37 53.12 54.90 55.79
52.03 52.22 52.60 52.29 51.82 55.37 53.43 54.40 55.83 54.97 43.74 41.77 44.61 48.21 49.33 50.51 45.91 51.42 51.71 48.58 45.94 42.81 43.35 41.72 45.65 43.62 42.91 41.49 42.52 37.98 43.49 42.28 39.21 36.43 34.89 42.94 33.98 42.27 45.23 45.62 46.66 48.93 51.40 53.30 55.76
51.74 52.14 52.07 50.67 55.50 52.60 53.34 56.40 55.99 53.09 32.94 42.94 44.26 52.11 50.79 46.55 47.13 47.59 52.68 48.94 43.29 43.10 41.92 40.18 42.36 41.95 41.39 42.43 43.61 39.18 43.17 41.05 40.43 37.67 36.13 38.90 36.36 40.43 44.96 43.28 45.12 47.51 50.61 53.34 55.92
51.39 51.92 51.98 54.16 56.69 54.65 55.66 56.09 54.07 41.28 31.27 40.15 45.01 45.12 45.17 46.68 45.87 47.48 47.73 50.03 48.38 43.64 44.42 43.36 47.04 43.64 44.15 45.43 44.43 43.90 40.70 40.44 39.79 37.29 30.81 37.70 37.40 38.46 41.82 43.96 45.78 48.92 49.70 53.03 55.47
51.35 50.84 53.54 55.46 51.33 55.67 56.10 52.74 41.36 34.11 42.86 39.52 41.29 44.23 43.36 42.52 43.31 44.26 43.22 42.09 37.76 34.42 37.87 41.72 43.38 46.15 45.95 41.79 44.47 40.59 37.08 30.48 29.22 28.94 29.80 39.83 36.46 39.43 44.43 45.98 47.93 48.79 50.59 52.93 55.85
50.20 49.35 52.10 53.89 55.67 55.92 53.82 45.98 33.62 37.96 39.32 44.21 43.01 43.25 39.86 42.28 42.18 42.56 41.57 39.49 43.37 41.52 37.10 34.34 33.93 41.61 45.60 42.54 38.44 38.42 38.37 32.25 25.40 28.13 32.68 38.77 33.32 39.08 46.05 47.54 49.29 50.67 52.50 53.50 56.01
48.93 57.48 56.04 53.80 55.29 55.29 49.14 39.19 36.94 39.32 41.91 40.47 41.88 39.22 39.66 41.73 40.78 39.61 40.75 40.30 41.86 42.42 35.54 34.92 34.93 43.05 43.29 43.87 41.41 36.49 33.02 39.49 31.61 33.37 31.46 36.58 39.92 43.62 46.29 46.07 47.41 50.90 51.92 53.15 56.34
51.85 54.51 52.08 54.56 56.04 53.92 45.66 36.56 40.51 43.22 43.58 42.66 36.44 39.31 34.35 37.94 37.52 38.72 38.37 42.70 41.11 43.54 43.48 36.52 31.60 40.40 42.06 43.10 42.05 38.93 40.69 33.73 34.83 25.64 25.29 33.40 35.71 37.00 42.32 43.79 46.07 48.51 52.06 54.53 56.29
52.06 49.07 52.17 54.89 55.02 49.14 40.64 40.00 41.82 45.00 44.76 40.89 39.82 37.77 37.91 36.20 37.42 35.87 36.89 41.83 43.13 42.36 41.68 38.10 31.63 35.23 40.14 38.03 37.07 36.26 34.65 37.14 37.54 33.56 28.60 28.78 34.36 44.97 43.52 45.86 45.68 49.26 52.53 55.04 55.85
49.89 44.65 52.08 54.58 45.77 46.61 41.30 40.63 40.97 43.19 45.19 43.42 43.45 41.84 38.58 37.86 36.10 34.99 35.54 38.57 43.79 41.63 34.86 38.37 33.81 32.05 36.21 42.34 44.64 41.30 37.99 37.59 31.81 31.25 35.18 32.67 30.81 48.38 45.85 47.83 48.75 50.85 53.45 55.62 57.48
46.01 46.63 52.15 52.32 39.56 40.59 43.35 41.16 41.63 41.89 42.40 41.68 40.83 42.29 42.39 36.96 33.43 37.16 39.06 43.64 42.91 40.32 34.27 36.58 33.99 30.50 34.16 38.03 41.01 37.78 39.95 40.15 39.81 38.72 32.39 28.72 29.79 43.85 45.93 49.95 50.29 52.46 54.27 55.72 62.34
46.26 42.71 47.41 48.47 46.72 41.05 39.92 40.18 39.59 43.82 42.48 43.39 42.82 43.24 39.76 38.10 39.54 35.88 37.08 40.76 42.81 41.32 44.13 41.75 35.45 33.14 30.93 35.99 36.66 35.59 37.92 39.23 37.79 32.78 33.18 32.00 33.30 38.76 44.62 47.71 51.31 53.73 55.07 59.42 60.01
46.82 43.54 43.06 40.37 42.77 41.43 41.76 40.22 39.09 38.64 42.61 44.21 42.13 41.84 39.81 34.34 35.51 36.17 39.86 40.13 40.83 42.18 40.99 38.20 33.81 36.31 37.34 39.11 39.56 37.74 38.23 37.10 36.95 37.17 32.29 34.22 36.79 41.18 45.26 45.28 52.75 54.33 60.22 56.89 56.38
44.07 42.10 45.86 42.26 43.02 41.50 38.20 40.52 38.42 39.99 40.25 41.04 40.79 42.60 41.56 37.03 38.37 35.78 38.08 38.05 36.39 39.58 38.06 39.31 34.45 37.32 35.87 41.16 40.15 37.39 38.78 38.30 37.92 38.16 37.85 37.11 37.68 45.18 49.19 48.70 54.87 57.43 55.01 53.98 54.60
49.22 48.65 44.36 42.09 41.73 40.40 40.43 39.60 39.07 41.38 42.78 44.49 43.56 41.11 39.04 43.27 43.55 45.17 45.80 43.81 39.98 36.91 35.94 35.28 36.30 35.56 34.72 40.50 39.08 34.87 35.68 36.54 37.25 39.66 34.52 35.62 40.12 45.81 48.24 53.86 54.91 54.15 54.07 53.29 53.56

GFSSW_sfc_wetblb_165.txt.gz
Wetbulb
55.53 55.35 55.33 55.18 55.16 54.93 54.97 55.03 54.93 55.09 55.10 55.00 54.95 54.89 55.38 55.62 55.53 57.94 54.09 53.36 56.32 58.59 59.95 58.83 55.48 53.27 52.41 52.46 53.59 55.01 47.79 45.86 47.64 48.83 50.87 54.88 53.89 56.14 56.39 54.30 55.62 56.87 58.19 60.82 71.62
55.09 55.05 55.03 54.98 55.03 54.79 54.97 54.67 54.81 54.74 54.71 54.63 54.65 54.66 54.89 55.28 56.15 53.73 55.03 55.11 56.30 58.89 58.66 53.36 51.77 52.73 49.85 49.19 50.76 49.26 46.86 47.30 51.07 51.84 51.40 53.06 53.88 54.60 53.00 53.00 53.21 55.06 57.39 58.76 62.36
54.74 54.77 54.75 54.84 54.80 54.85 54.64 54.42 54.39 54.42 54.48 54.46 54.43 54.58 54.71 55.76 54.63 52.64 56.75 57.34 58.43 59.67 59.02 56.42 53.48 52.35 49.50 49.60 48.43 48.21 45.53 48.85 49.98 51.64 52.16 51.57 52.89 55.00 53.05 51.91 53.56 53.04 55.84 57.47 58.08
54.45 54.70 54.67 54.44 54.29 54.44 54.06 54.29 54.54 55.02 54.80 54.54 54.38 54.61 54.96 56.79 46.16 57.05 60.06 59.58 59.21 59.27 56.32 53.36 52.04 49.39 48.33 47.09 48.96 44.75 47.54 48.74 49.29 50.32 50.62 51.10 53.94 53.12 53.72 53.84 55.98 56.37 56.75 57.47 57.02
54.02 54.63 54.34 54.07 54.16 54.26 54.49 54.51 54.66 54.83 54.80 54.77 54.58 54.76 55.37 53.91 51.10 60.32 60.87 59.85 58.67 56.01 53.04 51.56 50.13 50.08 47.04 47.94 47.75 46.58 47.22 48.03 48.48 48.65 49.52 51.62 51.98 51.93 52.57 55.58 57.00 56.76 56.79 56.56 57.76
54.10 53.85 53.91 53.88 54.06 54.39 54.53 54.89 54.97 54.79 54.47 54.71 54.79 54.73 55.24 49.81 55.83 57.27 58.10 56.55 55.68 54.88 53.31 52.83 51.01 52.08 49.24 48.51 47.74 48.80 47.80 47.69 48.58 48.32 48.63 47.55 49.74 51.13 52.41 55.11 55.75 56.62 56.48 56.80 57.55
54.66 54.28 53.81 53.81 54.10 54.55 55.07 55.04 54.92 54.96 55.39 55.26 55.17 56.04 54.09 51.91 56.90 57.41 56.84 55.80 56.72 55.12 52.43 54.12 53.64 50.72 51.08 47.79 50.43 49.18 45.77 47.43 47.57 47.85 47.14 48.69 45.21 46.40 51.25 53.54 54.17 54.86 56.29 57.13 58.17
54.44 54.31 53.86 53.89 54.22 54.50 54.85 54.82 55.57 56.41 55.12 55.00 55.64 57.27 52.19 57.05 58.49 57.24 57.46 56.42 57.81 57.43 55.41 55.22 54.88 52.20 50.13 51.19 48.32 45.60 46.02 41.66 46.32 47.04 47.60 47.34 41.44 47.33 50.46 50.64 51.09 53.02 54.93 56.40 57.82
54.19 53.90 53.80 53.70 54.01 54.34 54.51 54.35 56.70 56.24 56.07 56.02 56.77 55.80 51.14 55.34 54.44 55.89 56.64 53.84 55.61 56.40 56.42 55.48 53.50 49.99 49.87 46.05 43.96 45.15 40.13 41.82 42.84 47.05 46.37 46.45 43.47 47.60 50.40 50.34 49.80 51.44 53.33 54.57 56.88
53.90 53.65 53.30 53.20 53.76 54.10 54.33 53.80 57.18 55.87 56.93 58.61 56.98 51.50 54.09 51.14 54.32 54.68 56.58 55.11 53.20 53.56 52.75 51.73 50.65 47.25 47.14 44.30 37.72 40.63 40.86 41.85 41.65 45.00 45.62 44.22 44.19 47.52 49.46 49.84 50.30 50.80 52.29 53.83 55.29
53.72 53.43 53.06 52.91 53.57 53.92 54.25 56.58 54.06 53.66 55.25 49.68 50.30 50.15 51.44 54.13 55.48 53.06 54.95 53.20 53.15 51.60 46.47 49.96 44.44 40.58 43.97 46.58 45.95 44.71 42.89 42.22 44.00 46.07 44.37 44.64 44.16 46.21 49.41 49.19 49.77 50.34 52.36 53.73 55.45
52.95 53.03 53.30 53.59 53.47 53.62 55.73 53.49 52.68 53.39 47.78 53.46 52.19 52.02 53.67 54.28 48.98 52.55 54.59 49.33 49.48 45.58 48.18 46.15 42.23 46.73 47.20 47.02 44.63 43.27 41.63 41.75 44.94 46.10 44.62 44.84 44.07 46.74 47.76 48.41 50.21 50.94 52.67 54.05 55.64
52.56 52.69 52.77 53.06 53.51 53.90 55.80 53.99 57.31 56.53 48.95 49.25 51.09 49.99 50.94 51.99 49.31 50.27 51.76 50.29 47.46 45.48 45.35 41.80 45.62 48.22 46.54 45.28 43.43 43.39 41.67 41.30 41.73 44.97 46.19 44.41 42.26 45.34 47.65 49.12 49.47 51.28 52.90 54.30 55.26
52.17 52.36 52.78 52.82 51.49 56.08 54.76 56.92 57.95 57.35 46.36 43.88 46.38 49.77 51.12 52.27 48.72 53.36 53.68 50.42 47.52 44.37 44.70 44.92 48.28 45.92 44.75 43.21 43.89 39.91 45.02 43.84 42.64 40.78 37.24 43.63 34.62 43.35 46.39 46.97 48.10 49.14 51.37 53.11 54.95
51.85 52.36 52.27 51.87 57.01 53.42 54.91 58.17 58.02 56.19 37.69 45.16 46.73 53.67 52.48 49.47 49.94 49.95 53.57 50.72 45.14 45.73 44.32 42.83 43.44 42.83 42.31 44.01 45.23 41.79 46.30 43.99 43.44 41.64 39.16 40.94 36.00 41.69 46.54 44.96 46.98 48.73 49.79 52.09 54.77
51.48 51.93 52.24 56.45 58.63 55.37 57.41 58.31 56.69 44.88 34.64 43.11 47.89 47.43 47.65 48.91 48.54 50.42 50.01 51.91 50.73 45.97 46.27 44.67 49.30 46.31 45.98 46.66 46.34 46.39 44.09 43.88 43.18 39.09 33.02 39.15 37.07 39.28 41.82 45.24 47.33 49.69 50.19 51.28 53.49
51.30 51.29 53.49 56.91 51.62 56.38 57.95 55.15 44.44 38.08 45.46 42.54 43.71 46.75 46.50 45.66 46.19 46.95 45.92 44.56 41.53 36.87 39.56 43.64 45.17 47.86 48.83 44.09 45.61 43.93 39.21 32.00 30.62 31.62 31.79 40.99 37.40 41.02 46.43 48.00 48.77 49.26 50.24 51.38 52.95
50.14 49.58 55.32 56.33 56.10 57.27 56.12 49.24 38.34 41.58 41.98 46.29 45.51 45.79 43.40 45.43 44.82 45.51 44.16 41.17 45.21 43.00 38.93 37.08 35.82 43.17 46.24 43.66 40.59 40.15 38.82 31.36 25.18 29.43 34.01 41.26 35.94 41.34 48.71 49.88 50.26 50.31 51.70 52.22 52.34
49.25 58.60 57.44 54.83 56.56 57.25 52.01 42.06 40.13 42.42 44.17 42.86 44.21 41.99 42.43 44.72 43.81 42.11 43.08 42.60 43.23 43.77 37.13 36.70 36.53 44.89 44.54 44.92 44.02 37.92 34.95 40.87 33.65 37.62 33.90 37.96 39.88 46.60 47.83 47.76 49.00 49.20 51.01 52.01 52.51
54.08 55.71 55.68 55.43 57.97 56.10 48.25 38.07 42.47 45.67 45.69 44.69 39.32 42.61 39.24 41.43 41.02 40.51 39.95 44.42 42.44 45.04 45.46 38.59 31.84 41.42 43.87 44.96 45.06 40.12 42.58 33.38 34.40 27.35 26.31 33.23 35.84 36.72 43.17 45.66 47.87 48.56 49.38 52.19 53.48
54.65 51.23 54.58 55.74 57.82 51.43 43.86 42.43 43.86 45.61 46.71 43.03 41.73 40.87 41.14 38.32 39.34 37.34 38.26 42.98 44.54 43.88 43.31 39.05 32.40 36.59 40.92 39.24 38.74 38.21 35.30 36.92 38.65 36.62 30.17 29.35 34.26 43.18 44.36 47.05 48.18 49.15 50.31 53.02 53.79
54.21 48.13 55.11 55.85 48.05 47.66 44.37 44.14 43.20 45.23 47.29 45.80 45.80 44.36 40.95 39.74 37.86 36.26 36.35 39.63 44.18 42.23 35.76 39.96 34.57 32.87 36.25 43.59 45.21 42.18 39.99 38.82 34.40 32.83 36.72 35.12 35.42 45.08 46.52 47.64 49.36 49.92 51.58 54.61 55.22
51.30 50.97 56.25 54.85 43.08 43.49 46.14 44.73 45.12 44.61 44.63 44.35 43.71 45.47 44.72 40.32 34.83 38.38 40.63 45.02 44.92 41.94 34.78 37.72 34.39 31.79 36.24 41.24 39.11 37.26 39.96 41.93 40.24 40.08 34.65 31.32 34.14 45.18 46.78 47.40 49.19 51.35 51.00 54.34 56.59
52.03 47.72 51.36 51.40 50.07 45.15 43.21 43.89 42.99 46.35 44.89 45.93 45.08 46.00 43.22 41.01 41.80 38.49 39.09 41.85 44.10 43.36 45.23 42.90 35.28 33.38 32.38 36.75 39.09 35.93 37.17 40.95 39.92 34.71 35.19 34.76 36.92 41.71 44.89 45.70 48.61 52.17 51.61 53.74 62.55
53.76 49.49 48.71 44.41 45.94 46.12 46.11 44.56 42.48 41.50 44.92 46.46 44.92 44.55 42.89 37.30 39.21 38.46 40.42 43.60 43.42 43.78 41.96 39.09 33.64 37.26 38.73 38.49 39.04 39.93 39.71 40.32 38.14 38.57 34.41 37.23 38.07 42.89 44.70 46.60 49.85 52.62 52.75 59.86 59.89
49.18 48.30 49.66 48.12 47.71 45.79 44.05 43.80 41.23 42.35 43.42 42.45 42.70 44.42 44.48 39.09 40.09 37.58 40.95 39.80 38.65 39.99 38.69 40.76 34.17 38.08 38.01 41.61 41.65 38.65 39.93 39.26 39.75 39.54 38.54 38.38 39.71 47.05 48.44 48.28 50.19 51.39 58.56 56.95 57.46
54.40 53.44 48.85 46.40 48.18 45.81 44.60 42.82 41.99 44.34 44.88 46.08 45.45 44.45 43.82 44.70 46.13 47.15 47.68 46.53 44.92 38.71 36.59 37.32 35.64 34.25 35.16 40.47 39.82 34.49 34.48 34.17 35.96 37.27 33.67 34.00 41.60 45.40 43.02 50.32 53.39 57.09 58.98 56.51 56.23

GFSSW_sfc_wetblb_168.txt.gz
Wetbulb
55.74 55.74 55.71 55.64 55.45 55.25 55.43 55.60 55.44 55.50 55.49 55.56 55.56 55.70 55.67 55.80 56.01 57.36 54.21 52.85 56.94 60.46 59.95 59.47 58.87 55.00 53.26 49.27 51.36 52.94 45.65 44.32 45.83 47.12 48.89 53.09 52.14 55.41 57.20 55.38 55.58 56.26 56.07 66.58 71.54
55.56 55.49 55.43 55.17 55.13 55.04 55.32 55.17 55.37 55.21 55.36 55.57 55.38 55.44 55.53 55.73 55.24 55.81 55.24 57.32 58.90 59.94 56.69 55.22 52.50 52.59 50.53 49.32 48.69 47.04 44.75 45.01 49.53 50.16 49.36 51.61 51.94 52.93 53.74 53.97 53.51 54.72 56.94 61.89 67.97
55.08 55.17 55.18 55.13 55.25 55.39 55.03 55.01 55.30 55.59 55.91 55.85 55.68 55.47 55.33 55.45 55.18 53.01 57.82 58.32 58.15 59.67 57.41 56.27 54.35 51.27 48.30 50.01 48.57 46.57 43.73 47.55 48.52 50.23 50.99 49.95 49.85 52.32 51.12 51.26 53.72 53.05 54.92 57.11 59.98
55.08 55.05 55.09 54.71 54.96 54.79 55.01 55.24 55.44 55.69 55.87 55.68 55.60 55.42 55.61 55.36 46.53 56.00 60.20 59.50 60.28 59.03 56.87 54.27 52.06 49.21 47.55 46.23 49.49 45.01 46.61 46.86 47.64 49.28 49.20 48.38 50.25 49.28 51.42 53.02 56.20 56.35 56.47 56.40 57.01
54.94 55.03 54.69 54.70 54.73 55.02 55.34 55.55 55.61 55.61 55.55 55.54 55.43 55.46 55.44 54.49 52.84 60.08 61.10 59.81 59.13 57.05 53.32 51.94 49.83 49.40 46.74 48.20 48.45 46.29 46.89 48.17 48.63 48.20 47.79 48.34 47.48 48.38 50.21 54.72 56.59 56.55 57.18 56.36 56.72
55.16 54.50 54.42 54.34 54.70 54.99 55.33 55.64 55.76 55.56 55.66 55.50 55.57 55.17 54.24 50.94 56.36 59.81 58.53 57.75 56.19 55.24 53.88 53.19 51.07 51.59 48.37 47.65 47.13 48.72 48.36 48.08 48.43 47.96 48.22 46.72 46.73 47.57 49.63 54.49 54.92 54.82 55.25 56.59 57.03
54.85 54.87 54.38 54.31 54.39 54.84 55.46 55.28 55.23 55.76 56.69 56.50 55.99 55.65 54.10 52.95 57.10 57.38 56.97 55.98 56.66 55.73 52.81 54.14 54.09 50.97 50.25 47.17 50.29 49.08 45.60 47.20 47.71 48.00 46.89 48.07 44.41 44.68 49.07 51.50 52.84 53.52 54.74 56.32 57.54
54.53 54.30 54.16 53.91 54.16 54.63 55.06 55.32 55.36 56.89 57.08 56.16 55.74 56.48 51.47 58.16 58.23 56.39 57.38 55.44 56.95 57.35 55.97 56.02 54.76 51.41 49.44 50.65 48.27 45.47 45.35 40.60 46.02 47.42 47.71 46.75 40.22 46.36 49.17 49.28 49.01 51.02 52.71 54.85 56.98
54.24 53.87 54.01 53.29 53.85 54.26 54.73 54.66 55.47 58.05 57.49 56.77 55.74 56.01 50.92 58.10 54.55 57.03 56.03 53.11 54.34 55.63 56.62 56.34 54.08 49.78 49.36 44.85 42.70 44.52 39.49 41.63 43.47 47.86 46.74 45.28 41.77 46.74 49.54 49.69 49.34 50.06 51.34 52.90 55.36
53.89 53.72 53.58 53.54 53.72 54.24 54.56 54.23 56.72 56.91 56.93 59.10 58.13 51.66 54.28 52.24 54.81 55.40 56.34 55.08 52.90 52.65 51.93 51.85 50.28 46.38 46.52 43.87 36.43 39.61 40.69 42.52 42.49 46.48 46.18 44.07 43.36 46.42 48.13 48.58 48.94 50.28 51.38 51.59 53.12
53.73 53.37 53.35 53.87 53.99 54.28 54.51 56.80 52.82 53.05 55.94 50.08 50.17 51.28 51.28 54.13 55.65 53.57 54.78 53.85 53.00 50.49 45.72 49.65 44.48 41.01 44.77 45.96 45.36 44.36 43.09 41.96 44.64 47.13 45.18 43.90 44.00 45.92 48.26 47.80 48.02 49.48 50.70 51.77 52.51
53.44 53.33 53.42 53.79 53.97 54.13 54.31 54.37 52.21 53.30 47.15 53.63 53.02 52.07 53.61 54.40 49.62 52.37 55.81 49.89 49.11 45.22 48.13 46.09 42.57 47.03 47.82 47.01 45.52 44.50 42.09 41.75 44.48 46.70 45.70 44.41 44.11 45.99 47.37 47.83 48.11 49.32 50.54 52.43 53.31
52.36 52.55 53.21 53.64 53.36 53.82 55.92 54.98 56.65 56.59 48.29 51.62 50.76 50.39 51.19 52.40 49.14 50.63 52.56 50.61 47.28 44.98 45.05 42.64 44.98 47.96 46.44 45.18 43.90 43.94 41.88 42.08 41.50 44.88 46.30 44.09 42.57 44.88 47.07 49.11 49.84 49.69 51.54 52.86 53.69
51.90 52.17 52.84 53.02 51.75 56.80 53.35 56.11 57.47 57.60 45.16 45.79 47.33 50.36 51.89 52.42 48.91 53.87 53.79 50.66 47.44 43.89 45.08 44.71 47.82 45.99 44.84 43.84 44.71 39.97 45.46 44.42 43.00 41.19 36.64 44.63 33.89 42.17 45.62 46.66 48.74 49.86 49.98 50.91 53.05
51.71 52.19 52.39 51.73 56.23 54.57 53.30 57.21 58.28 56.78 37.00 46.30 47.49 54.01 52.48 49.71 50.32 51.00 55.01 51.22 45.11 45.08 44.64 42.54 44.17 43.68 42.49 43.41 45.51 42.43 46.01 44.34 43.64 41.06 39.73 40.41 35.62 40.66 45.13 44.37 46.85 49.51 49.86 51.17 52.63
51.33 51.88 52.25 56.18 57.32 56.51 55.56 58.40 57.68 45.18 35.45 43.65 47.78 46.38 46.98 49.02 49.29 50.76 50.60 52.81 51.47 46.40 46.97 45.41 49.27 47.11 45.43 46.55 46.45 46.72 43.73 43.46 42.93 40.28 32.88 38.23 36.60 37.82 41.76 45.05 46.65 49.97 50.75 51.02 51.83
50.81 51.29 51.53 56.50 52.30 54.90 56.38 55.54 44.22 39.16 46.00 42.27 42.80 45.30 45.55 45.87 46.41 47.22 46.14 44.79 42.35 38.23 39.01 44.46 44.71 47.51 48.39 44.37 46.81 43.86 40.59 33.23 31.26 31.26 30.16 39.70 36.94 40.07 45.36 47.86 48.77 48.91 49.42 51.57 52.21
49.46 49.70 54.81 58.06 55.73 55.78 55.34 49.30 39.07 42.82 42.57 45.65 44.22 44.68 43.20 44.95 44.96 45.13 43.82 41.13 45.88 43.73 39.88 37.16 35.84 43.57 46.95 43.53 40.42 40.01 38.97 32.52 25.32 27.46 30.19 39.20 33.19 39.11 48.13 50.25 51.05 50.71 50.79 52.80 52.10
48.99 59.30 58.71 56.45 56.09 56.47 52.33 42.63 40.69 41.68 43.84 42.14 43.51 41.37 41.52 43.81 43.08 42.70 41.57 41.23 44.06 44.13 37.78 36.32 35.95 44.30 43.94 44.82 42.71 38.36 35.98 40.36 32.77 34.43 31.79 34.80 39.08 44.22 46.76 48.01 49.27 49.46 50.63 51.40 52.89
52.56 56.64 57.31 56.70 58.31 56.13 49.14 41.36 44.22 45.69 44.36 44.50 39.10 41.66 38.12 40.96 40.27 39.63 39.52 43.78 41.83 44.36 44.54 38.88 31.58 40.53 42.42 44.63 44.69 41.53 43.37 34.72 34.17 26.62 25.74 33.02 35.95 37.41 43.03 44.76 46.35 48.58 49.85 51.22 53.95
54.23 53.47 55.82 58.78 57.69 51.48 44.54 44.35 45.01 47.06 46.98 43.17 41.19 40.44 41.27 39.61 40.31 38.87 39.52 42.78 44.83 43.36 43.74 40.38 33.50 35.60 39.96 37.87 38.18 38.70 37.06 37.89 37.42 34.83 28.81 27.60 33.08 43.45 44.38 45.59 44.21 48.11 50.03 51.28 52.35
54.52 49.64 57.36 57.59 49.97 49.65 44.67 46.07 45.73 46.11 47.70 45.61 45.08 43.76 41.96 41.76 40.15 39.68 38.46 41.44 45.76 43.13 37.85 39.88 34.59 32.07 35.14 42.72 44.84 42.50 39.36 38.64 32.67 30.39 35.41 33.09 32.73 45.94 46.68 47.02 47.55 48.46 50.61 52.10 52.64
50.97 53.28 58.26 57.15 44.43 44.95 47.99 46.57 47.84 46.08 45.38 44.38 43.22 44.75 45.27 42.67 37.90 40.00 41.94 46.42 46.92 43.09 37.10 38.04 34.22 30.45 34.54 40.73 43.30 39.35 41.11 40.63 39.39 37.86 34.35 31.11 33.43 47.01 46.86 46.51 48.00 48.11 50.29 52.66 53.13
52.12 48.88 53.33 53.80 52.94 47.93 45.44 45.15 44.26 47.87 45.50 45.79 44.30 45.51 43.98 41.82 43.14 40.72 41.46 44.32 46.22 43.57 45.77 41.29 35.05 32.56 29.66 34.21 38.81 35.77 38.43 40.02 38.82 32.62 34.32 34.99 37.30 42.23 44.90 45.42 47.04 48.63 50.61 52.46 53.79
54.38 50.32 52.06 45.77 47.70 48.79 48.18 46.68 44.40 42.38 45.71 45.87 43.94 43.78 42.46 39.11 41.55 40.60 42.40 43.74 45.77 44.97 42.05 39.38 33.24 35.74 36.55 37.98 39.05 38.82 38.74 39.52 37.41 37.37 35.40 37.65 38.00 41.78 44.40 45.64 48.16 49.54 50.89 51.89 57.27
50.24 48.83 50.84 48.47 49.57 48.03 47.80 45.95 43.49 44.10 43.44 42.05 41.82 43.94 44.98 42.25 42.45 39.78 41.96 42.97 40.88 40.68 39.07 40.52 34.65 35.91 33.98 39.02 40.15 39.01 36.70 35.95 36.37 35.73 35.46 37.92 38.27 44.65 44.71 46.97 47.71 49.36 50.53 51.99 57.47
54.95 54.47 50.54 47.00 47.64 46.24 46.87 45.54 44.73 45.49 45.28 45.99 45.27 44.48 43.82 45.22 46.79 47.17 48.78 48.72 44.70 40.37 38.82 37.40 36.09 34.07 31.35 39.55 39.85 32.86 31.29 32.63 33.47 34.59 33.32 31.72 37.82 40.32 40.99 44.33 47.12 49.98 51.77 53.96 57.42

GFSSW_sfc_wetblb_171.txt.gz
Wetbulb
56.14 55.69 55.90 55.86 55.80 55.73 55.72 55.77 55.81 56.05 56.14 56.37 56.31 56.31 56.18 56.40 56.09 53.30 50.17 50.62 54.78 61.92 61.56 55.25 56.13 56.30 51.32 45.86 45.79 44.06 38.28 36.90 38.71 41.56 43.73 47.99 47.06 50.98 52.09 50.00 51.95 53.45 52.79 69.16 71.48
55.84 55.76 55.80 55.80 55.50 55.60 55.55 55.87 56.04 56.18 56.33 56.55 56.66 56.44 56.29 56.28 51.89 51.77 55.31 59.60 60.74 61.02 54.38 52.39 50.81 50.97 43.95 44.27 43.01 38.93 34.41 37.75 43.49 44.83 44.11 46.52 46.89 47.63 48.35 48.50 49.53 51.75 54.67 69.26 69.49
55.49 55.52 55.50 55.42 55.49 55.64 55.56 55.92 56.15 56.44 56.51 56.32 56.32 56.34 56.20 55.31 50.25 48.44 58.45 60.23 58.83 59.51 55.26 53.94 52.28 49.07 42.60 43.66 43.46 41.04 37.70 41.72 43.65 45.31 46.63 45.90 46.07 48.02 46.76 45.31 48.06 49.51 52.75 57.83 65.62
55.34 55.29 55.33 55.24 55.14 55.45 55.61 55.92 56.33 56.60 56.53 56.50 56.14 56.16 56.08 52.77 42.71 51.66 60.52 59.81 60.56 58.90 55.30 52.82 48.69 43.21 41.03 40.79 44.70 38.66 43.34 43.44 43.20 44.54 43.35 42.82 45.28 45.08 45.98 46.88 50.28 51.61 54.79 54.47 52.97
54.81 54.97 55.05 54.79 55.02 55.14 55.48 55.66 55.98 56.15 56.20 56.43 56.24 56.06 53.23 49.77 51.20 58.53 61.54 60.53 58.06 56.36 52.72 49.13 46.03 43.98 40.29 42.79 44.54 41.89 43.64 45.34 45.11 43.90 43.70 45.01 43.40 43.39 44.40 48.05 49.98 50.90 54.08 53.26 53.17
55.03 54.56 54.56 54.58 54.64 54.80 55.34 55.52 55.58 55.76 56.09 57.10 56.49 55.84 51.49 47.01 56.96 58.86 57.25 56.19 56.56 52.04 51.80 50.11 46.95 47.81 43.80 42.97 41.23 44.28 44.82 45.00 45.01 44.29 44.24 43.19 43.38 44.09 46.11 48.39 48.53 49.19 51.02 52.79 52.92
54.51 54.53 54.08 53.90 54.13 54.35 55.12 55.07 55.16 55.54 56.83 57.85 56.92 54.76 50.79 49.01 55.32 57.03 55.18 52.21 53.71 54.07 51.20 52.02 51.90 47.52 46.26 42.71 46.03 45.77 41.41 43.80 44.08 44.12 43.14 44.78 41.35 42.43 46.80 48.02 46.52 47.52 48.90 51.41 52.24
54.21 54.04 53.93 53.67 53.84 54.22 54.67 55.22 55.34 55.51 57.53 57.05 56.24 53.39 47.87 55.99 54.47 52.85 53.79 53.42 53.81 54.31 53.41 53.48 52.82 48.51 44.56 45.97 44.94 41.67 40.20 34.86 41.99 44.76 45.38 43.11 37.52 44.37 46.79 45.88 45.60 46.81 48.08 49.16 50.33
54.17 53.69 53.73 53.65 54.18 54.57 54.79 54.85 55.10 56.06 58.00 57.97 53.04 50.85 47.89 56.69 53.13 55.36 54.42 51.66 52.51 53.16 52.89 55.15 50.72 45.91 45.98 40.02 36.68 38.50 33.95 36.70 40.34 45.86 44.53 42.46 39.49 44.57 46.29 45.13 45.26 45.78 46.55 47.93 48.55
53.92 53.32 53.42 53.89 54.26 54.46 54.39 54.59 54.95 54.74 57.04 57.35 56.39 48.94 52.05 51.08 54.07 54.99 53.40 53.56 50.99 50.79 49.47 48.38 45.18 41.28 40.64 36.98 30.37 34.76 36.02 38.98 39.19 44.26 45.51 41.55 40.94 43.70 44.70 45.18 44.94 45.38 47.05 47.75 48.26
53.84 53.28 53.23 53.73 54.06 54.08 52.72 50.92 47.07 48.13 50.79 48.24 47.97 50.70 51.34 53.18 54.74 52.15 54.04 52.40 51.56 48.42 41.20 44.45 40.38 37.57 40.49 42.46 42.82 41.97 39.78 38.33 41.71 45.18 43.09 41.37 41.42 43.66 44.52 43.88 43.86 43.70 45.00 46.84 47.89
53.65 53.24 53.42 53.67 53.75 53.94 50.18 48.41 48.59 48.22 43.51 50.87 51.21 52.01 52.78 52.87 48.49 51.12 54.00 48.71 46.73 41.35 44.43 42.59 38.90 43.99 46.16 45.77 43.61 41.86 39.34 38.69 42.53 45.03 43.65 41.93 41.17 44.17 45.58 44.08 45.01 44.97 44.99 45.72 47.55
52.70 52.80 53.11 53.69 53.54 50.73 49.65 52.42 52.77 52.80 42.55 49.40 52.35 49.24 49.43 50.40 47.69 48.55 52.18 49.11 45.20 42.01 41.68 38.77 41.67 46.01 44.57 42.70 40.85 40.51 39.70 39.37 39.41 43.51 44.22 41.80 39.53 41.59 45.15 46.53 46.90 46.40 46.99 48.05 47.64
52.30 52.38 52.49 52.40 51.11 52.93 48.90 51.53 54.56 53.57 38.93 47.03 47.27 49.10 50.73 49.89 47.06 53.68 53.38 49.52 45.05 41.45 41.94 40.49 44.62 43.93 42.35 40.78 41.93 37.04 43.73 42.81 41.42 39.52 32.82 41.65 30.75 38.74 41.55 43.53 45.76 46.52 46.68 47.75 47.64
52.22 52.13 51.91 51.28 49.80 50.20 51.64 52.44 55.62 51.92 29.59 45.16 46.05 52.39 49.15 46.10 48.35 51.05 54.40 50.46 43.77 43.74 43.77 40.24 41.34 40.86 40.16 41.40 43.63 39.32 43.75 41.48 40.76 37.30 35.72 36.97 33.43 37.36 41.76 40.74 43.41 46.09 47.26 47.18 48.68
52.57 51.84 51.54 52.84 50.85 53.95 51.93 52.70 52.64 40.21 32.75 42.25 45.42 43.83 43.44 46.29 47.84 48.96 48.85 50.24 48.29 43.85 44.27 42.70 47.13 45.30 44.12 46.11 45.85 45.85 42.16 40.51 39.06 36.82 30.26 34.78 35.06 34.35 37.83 40.90 43.51 46.62 47.96 49.24 49.42
52.61 51.32 49.52 53.00 49.83 54.06 51.92 49.85 38.38 33.28 43.46 40.21 39.76 42.67 42.81 42.51 44.26 44.98 42.65 40.48 37.74 35.05 36.12 41.13 42.11 45.51 46.55 40.78 43.93 42.10 38.14 30.93 29.09 28.46 27.31 37.23 34.40 35.95 41.10 44.32 45.28 45.78 47.03 48.53 49.18
50.99 50.04 52.44 53.20 55.04 54.19 50.46 43.72 32.36 40.91 39.57 42.85 42.09 42.87 40.23 42.30 42.52 42.43 40.22 37.05 42.64 40.34 34.55 33.99 31.61 41.48 44.14 40.29 37.47 37.13 36.80 31.29 24.19 26.15 29.49 36.65 30.47 33.91 44.13 46.98 47.37 47.61 48.80 49.26 48.49
49.82 54.84 54.11 56.08 55.69 53.81 47.34 37.09 34.89 40.04 42.38 40.88 41.27 38.19 38.12 41.41 41.38 40.03 38.99 38.01 41.27 41.73 34.74 33.24 33.56 41.95 42.18 42.73 40.43 34.91 32.06 39.73 32.51 32.95 28.59 30.28 35.15 40.01 43.61 44.75 46.26 46.58 48.74 48.34 48.59
47.85 51.52 53.67 55.54 54.78 51.85 43.69 40.70 40.90 45.96 45.00 43.68 35.87 39.42 34.42 37.78 38.04 37.60 38.11 42.58 41.11 44.21 43.76 37.54 30.85 39.43 41.02 42.49 42.08 38.53 41.08 31.88 33.78 21.07 20.57 28.12 30.78 31.55 38.74 40.90 44.94 45.51 44.50 46.67 48.59
49.63 50.36 52.89 57.04 54.95 47.11 37.71 40.15 44.35 47.98 46.76 42.69 39.18 37.64 38.21 36.69 37.89 36.86 38.63 41.80 43.85 42.86 42.68 39.55 33.61 34.24 37.42 35.44 33.59 35.94 33.43 36.56 36.76 35.04 26.72 22.91 27.02 38.71 39.51 42.86 43.06 43.03 45.67 45.18 47.52
48.04 45.88 55.06 57.20 45.16 44.36 40.82 45.09 45.86 46.65 47.75 44.98 43.12 41.04 37.93 38.19 37.00 37.17 36.68 39.57 46.17 43.26 38.28 40.62 34.34 30.47 32.26 38.87 41.03 38.78 36.68 36.84 32.07 28.51 31.38 28.49 28.84 42.07 41.21 44.40 43.23 43.43 46.53 45.89 46.30
45.34 49.29 57.18 54.92 41.01 42.01 45.22 46.51 47.66 45.96 44.54 43.26 41.41 42.14 41.42 37.65 34.04 37.56 39.27 45.79 45.12 42.06 37.02 37.80 33.01 27.76 29.09 34.84 40.36 38.38 39.91 39.80 38.81 36.44 31.40 28.10 27.95 43.39 43.36 43.11 44.16 43.63 44.28 46.48 47.23
47.58 44.75 49.05 50.56 48.87 44.57 43.08 43.70 44.81 48.68 45.75 45.22 42.60 42.74 39.22 37.48 39.74 37.30 39.38 42.96 45.11 44.77 46.40 41.22 34.28 32.72 26.76 30.08 34.31 32.21 35.28 37.30 37.01 32.42 32.83 32.62 34.05 39.16 41.37 42.50 44.65 44.05 45.13 45.41 47.26
49.73 45.51 48.39 41.64 43.98 45.35 45.79 45.89 43.80 41.68 45.76 44.49 40.73 40.82 38.68 35.02 37.80 37.35 39.86 41.08 43.55 45.54 43.32 39.04 32.65 33.85 34.90 36.01 36.05 35.22 35.51 36.87 34.93 36.69 33.54 34.62 35.57 39.35 41.47 41.76 43.83 45.26 46.67 47.67 50.32
47.58 45.96 47.71 45.18 46.80 45.46 44.78 43.75 43.54 44.72 43.05 40.28 39.41 41.66 40.83 37.29 38.31 36.35 39.02 39.09 38.59 41.00 38.13 39.56 32.76 34.88 31.65 36.08 36.72 36.72 32.96 33.25 33.63 34.39 33.97 34.13 33.70 39.56 41.34 40.96 41.86 45.11 46.74 47.00 49.42
51.62 50.79 46.48 44.66 44.47 42.65 43.06 43.41 44.61 44.94 45.18 45.37 43.35 40.78 40.49 42.36 44.05 44.16 44.54 43.70 44.23 38.64 37.35 37.41 34.99 32.95 28.30 35.50 35.26 32.01 30.13 30.22 31.51 32.78 31.80 28.24 33.38 37.10 35.43 36.55 38.78 41.69 45.32 47.36 50.07

GFSSW_sfc_wetblb_174.txt.gz
Wetbulb
56.35 56.14 56.07 56.09 55.89 55.90 56.04 56.35 56.59 56.74 56.72 56.69 56.94 56.52 56.64 56.90 56.25 52.58 48.44 53.57 54.90 61.71 62.04 53.74 53.23 53.06 51.51 44.99 43.24 41.17 32.69 29.23 33.16 37.07 39.42 43.82 42.45 47.32 49.35 47.50 48.98 49.99 50.24 61.38 73.67
56.02 55.94 55.85 55.89 55.75 55.88 56.01 56.29 56.50 56.83 56.90 56.96 56.98 56.70 56.73 56.71 50.97 50.49 57.31 60.31 61.19 61.43 52.75 50.72 48.78 49.59 42.57 41.64 41.89 37.39 30.48 32.84 40.59 41.16 40.41 42.76 42.41 45.06 45.77 45.75 46.39 48.35 51.49 56.23 60.48
55.38 55.57 55.69 55.62 55.70 55.62 55.72 56.08 56.47 56.74 56.89 56.95 56.72 56.76 56.50 55.62 48.60 46.73 58.85 61.04 61.00 58.87 54.24 52.36 51.19 47.39 40.38 40.90 40.35 37.12 34.32 38.97 41.01 41.82 42.18 42.22 42.13 43.91 43.55 41.58 44.84 45.95 48.27 52.24 58.75
54.93 55.21 55.31 55.12 55.22 55.25 55.59 55.94 56.18 56.58 56.64 56.56 56.50 56.68 56.58 52.06 39.96 49.85 60.81 61.43 61.14 58.22 54.22 51.38 46.10 40.45 37.60 37.66 41.07 37.25 42.04 41.70 41.63 43.09 40.53 40.24 42.86 43.08 43.11 42.61 47.02 47.73 49.35 50.86 52.89
54.48 54.60 54.50 54.53 54.59 54.80 55.10 55.42 55.68 55.95 55.97 56.49 56.66 56.95 52.44 48.94 50.07 56.45 62.30 61.58 58.07 54.96 51.78 48.14 44.24 41.66 37.94 40.52 42.14 37.76 41.24 44.03 44.39 42.78 42.26 43.92 42.59 42.04 43.04 46.23 47.86 48.31 49.36 48.81 51.00
55.08 54.31 54.06 54.22 54.36 54.38 54.58 55.02 55.18 55.45 55.82 57.58 57.56 56.52 50.72 42.44 55.59 57.93 58.85 55.34 54.88 51.25 49.73 47.69 44.23 46.20 41.01 40.60 38.97 42.26 43.54 43.67 43.19 42.41 42.23 41.69 42.65 42.39 45.58 47.81 46.62 47.27 46.85 46.89 49.17
54.93 54.48 54.07 53.89 54.28 54.56 54.96 54.98 54.96 55.29 56.03 58.07 56.87 54.61 49.03 45.58 55.52 56.81 56.29 52.12 52.26 52.70 49.50 49.97 49.62 46.71 44.11 41.22 43.72 43.81 39.55 42.20 42.43 42.34 41.53 42.94 40.82 41.94 46.39 46.14 45.26 45.79 46.98 46.81 47.76
54.95 54.24 53.97 53.86 54.35 54.76 55.15 55.31 54.98 55.31 56.12 57.81 56.59 52.38 44.74 55.47 54.04 52.67 53.22 52.06 52.26 52.39 51.55 52.18 51.42 46.85 42.86 43.35 43.23 39.48 37.17 31.54 39.67 42.88 44.20 41.66 36.46 43.71 45.75 44.65 45.03 45.53 46.07 47.16 46.90
55.09 53.95 54.03 53.84 54.29 54.62 54.84 54.62 55.25 55.91 56.48 58.24 51.84 49.81 46.97 57.76 51.83 53.57 52.62 51.25 51.11 51.63 50.95 54.07 49.27 45.06 44.03 38.07 34.08 35.12 30.42 33.95 38.23 43.25 43.05 41.04 38.51 43.80 45.64 44.27 44.33 44.86 44.07 45.87 46.38
55.25 54.01 53.68 54.11 54.21 54.51 54.17 54.62 54.50 54.32 55.76 57.00 55.35 46.90 49.84 50.00 53.41 54.35 53.44 53.04 49.73 49.04 48.00 46.40 42.68 39.37 37.16 34.59 29.69 31.85 32.81 35.23 36.17 42.11 43.15 40.84 40.78 43.87 44.13 43.62 43.74 44.78 44.22 45.00 46.96
55.72 54.07 53.59 53.96 54.39 53.91 50.80 48.01 43.56 43.41 50.42 46.15 46.84 49.36 50.09 53.52 54.36 50.91 52.56 51.10 50.00 46.69 39.95 42.95 36.46 33.33 37.76 39.50 41.05 39.94 37.84 37.01 40.72 44.42 41.16 40.96 41.30 43.47 44.41 42.79 41.29 41.34 42.88 43.15 45.67
55.51 54.68 53.86 53.53 53.45 53.66 48.00 46.15 47.96 47.35 41.92 49.19 49.90 49.68 51.75 52.29 47.48 49.84 52.53 46.86 45.17 40.08 41.57 38.04 34.95 41.24 42.89 43.17 41.38 40.07 37.38 37.48 41.44 44.01 42.18 41.02 40.64 44.04 42.90 43.29 43.12 43.79 44.47 43.70 43.94
54.66 54.43 53.72 53.41 52.92 49.71 47.10 50.09 51.81 49.16 40.19 46.76 51.10 49.74 49.60 49.20 46.39 47.23 49.99 47.61 43.88 40.42 40.19 35.63 39.87 44.35 42.58 40.81 39.59 38.62 37.15 37.37 37.32 41.11 42.19 40.63 38.80 41.38 44.90 44.34 45.00 45.74 44.90 45.22 46.26
54.60 54.23 53.49 51.95 49.17 48.07 48.18 49.46 51.64 50.70 38.28 44.76 48.17 47.60 47.88 46.61 45.32 52.25 51.88 47.79 43.71 39.72 40.37 39.23 42.65 42.20 41.18 39.27 39.92 34.77 41.38 40.83 39.25 36.83 32.20 42.20 29.60 38.19 41.15 43.08 44.45 45.71 44.85 44.84 45.75
54.45 54.19 53.04 51.93 44.60 46.12 49.89 47.32 51.83 50.49 26.15 44.38 44.17 49.06 47.12 44.84 46.22 48.33 52.26 48.28 41.13 41.52 39.30 37.81 40.05 39.50 38.06 39.77 43.51 38.82 43.63 40.49 38.82 35.00 33.37 35.84 33.61 36.39 41.60 40.30 42.71 45.11 46.23 45.90 46.15
54.19 53.66 52.25 49.95 46.62 49.43 51.63 48.12 50.00 38.07 28.56 40.48 42.86 42.41 42.58 44.49 45.65 47.71 46.58 47.88 47.21 42.96 42.54 40.41 44.42 43.37 42.79 45.23 44.46 43.67 39.17 38.26 37.48 33.59 27.97 33.35 33.15 33.55 36.98 39.57 42.71 44.83 45.08 46.81 46.99
53.76 53.10 50.19 51.19 45.56 49.13 48.71 47.51 36.70 29.25 41.72 37.71 38.23 41.10 40.97 40.53 41.69 43.76 41.44 39.16 34.81 29.76 32.35 38.27 40.22 43.40 45.70 39.59 41.69 39.66 33.58 27.25 26.92 25.65 26.61 35.77 33.15 34.71 40.42 43.53 44.16 44.10 45.69 47.24 47.92
52.11 50.87 50.43 51.64 47.82 49.16 48.28 41.73 30.71 38.64 37.73 42.59 41.61 40.72 38.09 40.60 40.55 41.34 39.25 36.42 40.44 38.26 29.50 31.73 28.83 39.00 44.09 39.27 35.14 33.96 33.00 24.36 21.28 19.23 25.42 34.72 29.74 33.67 42.33 45.90 46.58 47.45 46.43 46.24 46.57
50.54 48.05 50.35 52.75 52.29 49.17 44.15 33.84 31.59 38.49 42.50 40.72 40.03 36.63 35.89 39.65 39.51 37.93 37.20 36.82 39.89 40.20 30.55 32.86 32.44 41.81 42.20 42.38 39.86 31.91 28.01 35.96 31.41 31.80 28.01 28.87 32.84 38.66 42.13 42.31 44.12 44.50 45.00 44.79 44.98
46.19 46.72 49.57 52.76 50.30 47.44 40.00 36.81 39.23 45.58 45.67 42.97 34.47 38.19 32.75 35.94 35.71 34.45 35.95 41.46 40.35 43.22 41.94 37.69 30.78 39.45 40.97 40.89 40.90 36.32 38.96 27.66 32.94 24.94 23.07 25.94 28.54 29.70 36.53 39.05 41.77 42.37 42.50 44.05 45.29
45.46 45.67 50.78 53.46 50.17 42.81 34.82 36.72 42.71 47.73 47.46 42.00 37.93 35.96 36.09 34.44 35.12 32.91 36.21 40.63 42.80 42.42 41.83 38.74 33.72 34.95 38.78 35.24 32.02 32.27 30.22 35.10 34.78 32.89 24.07 23.55 26.33 36.07 37.50 39.36 39.97 41.76 44.08 43.93 44.33
43.21 41.51 51.92 52.36 42.35 39.96 37.79 42.82 45.74 47.18 48.54 43.51 41.45 39.02 36.12 35.88 33.52 33.91 34.71 38.41 44.15 43.69 34.65 37.21 34.98 30.66 33.10 39.47 39.90 36.63 35.56 35.79 30.32 29.14 32.28 28.17 29.09 41.00 38.83 40.45 41.23 42.15 44.97 43.59 46.26
41.34 42.64 51.81 50.20 37.18 37.46 42.19 44.92 47.04 46.49 44.27 42.46 39.85 40.58 38.73 34.96 30.36 34.83 37.66 44.07 43.75 40.61 37.12 38.78 32.59 27.67 28.24 31.86 36.58 35.31 37.22 38.08 38.14 36.63 30.53 28.10 29.37 41.50 42.12 41.71 43.25 42.80 44.36 46.23 45.26
41.88 40.30 43.95 44.36 43.94 39.10 39.18 41.57 42.73 48.07 45.88 44.70 42.50 40.57 37.07 35.64 36.74 33.47 36.62 41.36 43.15 43.58 47.11 41.77 33.89 32.76 27.20 30.16 32.40 30.94 33.94 36.05 34.99 29.43 29.72 31.01 33.33 38.87 41.07 40.88 42.48 43.01 44.23 45.40 45.41
44.02 40.87 42.83 37.36 40.98 41.72 41.15 42.24 41.13 41.18 45.51 43.66 38.59 40.05 37.93 33.41 33.88 35.24 38.24 39.56 41.70 44.48 41.56 38.21 31.70 34.43 35.19 35.49 35.49 34.19 34.12 34.72 32.35 34.02 30.40 33.25 34.53 36.70 39.34 40.24 39.08 40.29 42.19 44.80 46.10
42.54 43.55 46.19 42.10 42.44 41.17 40.65 39.83 40.95 42.73 42.83 39.86 39.58 40.30 38.60 33.99 35.49 34.78 37.60 37.70 35.43 41.11 39.28 38.53 32.57 35.45 32.59 35.42 35.52 33.27 35.11 32.76 33.17 32.68 32.77 33.21 31.60 37.86 39.75 39.66 39.17 39.16 39.18 40.44 44.91
48.17 47.41 45.03 40.13 40.39 39.82 39.15 41.54 41.39 43.63 44.19 45.10 43.58 38.71 36.94 40.07 41.24 42.34 43.12 41.73 39.37 40.55 37.36 37.18 34.40 33.11 27.90 33.57 33.32 29.39 31.43 30.07 31.08 32.95 31.45 27.23 31.94 36.82 35.81 35.36 36.17 37.09 37.67 39.12 41.45